[[{"header":{"parameterUnit":"m.s-1","parameterCategory":1,"la1":30.2992,"la2":30.254,"lo1":-89.0895,"lo2":-89.0443,"dy":0.0025,"dx":0.0025,"nx":19,"ny":19,"refTime":"2026-05-03T09:00:00:Z","depth":0,"parameterNumber":2,"parameterNumberName":"U-component_of_WINDS"},"data":[0,0,0,0.5094,0.5096,0.519,0.5191,0.5315,0.5316,0,0,0,0,0,0,0,0,0,0,0,0.5067,0.5068,0.5094,0.5096,0.519,0.5191,0.5315,0.5316,0,0,0,0,0,0,0,0,0,0,0,0.5067,0.5068,0.5069,0.5097,0.519,0.5191,0.5315,0.5243,0,0,0,0,0,0,0,0,0,0,0.5151,0.5126,0.5068,0.5069,0.5097,0.519,0.5191,0.5239,0.5247,0.5274,0,0.5296,0,0.5308,0.5325,0.5325,0,0,0,0.5096,0.512,0.5144,0.5069,0.5098,0.519,0.5148,0.5244,0.5253,0.5284,0.5298,0.5303,0.531,0.5326,0.5326,0.5478,0.5479,0,0,0.5091,0.5085,0.5138,0.515,0.5134,0.5145,0.5151,0.5249,0.5264,0.5299,0.5306,0.5312,0.5326,0.5327,0.5478,0.5478,0,0,0,0.5076,0.5081,0.5103,0.5145,0.5161,0.5148,0.5154,0.526,0.5267,0.5307,0.5314,0.5327,0.5329,0.5477,0.5478,0.5508,0,0,0,0.5073,0.5073,0.5101,0.5098,0.516,0.5211,0.5163,0.5261,0.5272,0.5313,0.5327,0.533,0.5476,0.5477,0.5505,0.5523,0,0,0,0.5061,0.5071,0.5085,0.5098,0.5138,0.521,0.5223,0.5263,0.5276,0.5325,0.533,0.5475,0.5477,0.5503,0.552,0.5562,0,0,0,0.5046,0.5111,0.5085,0.516,0.5137,0.5227,0.5223,0.529,0.5336,0.5328,0.5476,0.5478,0.5502,0.5517,0.5559,0.5596,0.5611,0,0,0.5124,0.512,0.5165,0.5145,0.5237,0.5213,0.5312,0.536,0.537,0.5442,0.5446,0.5506,0.5519,0.5561,0.5695,0.5707,0,0,0,0.5187,0.5219,0.5245,0.5288,0.5325,0.5359,0.5393,0.5411,0.5472,0.5405,0.5533,0.5541,0.5566,0.5584,0.5594,0.5616,0.5486,0.5486,0.5485,0.529,0.5299,0.5374,0.5395,0.5436,0.547,0.5505,0.5535,0.5533,0.5563,0.5585,0.5665,0.5685,0.5693,0.5716,0.5605,0.5605,0.5605,0.5605,0.5406,0.5453,0.5448,0.5518,0.5528,0.5588,0.5624,0.562,0.5678,0.5649,0.5672,0.5639,0.5705,0.5726,0.5607,0.5607,0.5607,0.5606,0.5606,0.5474,0.5498,0.5518,0.5581,0.5629,0.5648,0.5704,0.5712,0.5719,0.5741,0.5765,0.5765,0.5766,0.5752,0.5752,0.5753,0.5753,0.5753,0.5753,0.5537,0.5559,0.5604,0.565,0.5678,0.5717,0.5752,0.5781,0.5815,0.5816,0.5817,0.5812,0.571,0.5684,0.5758,0.5757,0.5756,0.5756,0.5756,0.5652,0.5627,0.5697,0.5726,0.578,0.5828,0.5836,0.5894,0.592,0.5947,0.5938,0.5861,0.5857,0.5849,0.5828,0.5935,0.5935,0.5935,0.5935,0.5709,0.5708,0.5782,0.5827,0.5873,0.5888,0.5968,0.5997,0.6022,0.6039,0.6024,0.5997,0.5988,0.599,0.5979,0.5959,0.6097,0.6097,0.6097,0.5781,0.5784,0.585,0.5874,0.5917,0.5954,0.6031,0.6084,0.6108,0.6104,0.6052,0.6045,0.6001,0.5986,0.598,0.5963,0.5927,0,0]},{"header":{"parameterUnit":"m.s-1","parameterCategory":1,"la1":30.2992,"la2":30.254,"lo1":-89.0895,"lo2":-89.0443,"dy":0.0025,"dx":0.0025,"nx":19,"ny":19,"refTime":"2026-05-03T09:00:00:Z","depth":0,"parameterNumber":3,"parameterNumberName":"V-component_of_WINDS"},"data":[0,0,0,0.865,0.8649,0.8596,0.8596,0.8559,0.8559,0,0,0,0,0,0,0,0,0,0,0,0.8685,0.8685,0.865,0.8649,0.8596,0.8596,0.8559,0.8559,0,0,0,0,0,0,0,0,0,0,0,0.8685,0.8685,0.8686,0.8649,0.8596,0.8596,0.8559,0.8588,0,0,0,0,0,0,0,0,0,0,0.8634,0.8685,0.8685,0.8686,0.8649,0.8596,0.8596,0.8589,0.8586,0.8596,0,0.8611,0,0.8584,0.8558,0.8558,0,0,0,0.8635,0.8688,0.8656,0.8686,0.8649,0.8597,0.8616,0.8587,0.8584,0.8593,0.861,0.8608,0.8584,0.8558,0.8558,0.8665,0.8666,0,0,0.8638,0.8686,0.8658,0.8655,0.8665,0.8618,0.8615,0.8584,0.8606,0.861,0.8606,0.8583,0.8558,0.8558,0.8664,0.8665,0,0,0,0.8656,0.8689,0.8657,0.8657,0.8645,0.8617,0.8613,0.8607,0.8593,0.8605,0.8583,0.8558,0.8558,0.8663,0.8664,0.8769,0,0,0,0.8657,0.8699,0.8659,0.8688,0.8647,0.8626,0.8637,0.8595,0.859,0.8583,0.8558,0.8558,0.8661,0.8664,0.8764,0.8811,0,0,0,0.8682,0.8701,0.87,0.869,0.8669,0.8625,0.8609,0.8593,0.8577,0.8558,0.8558,0.866,0.8663,0.8758,0.8803,0.8854,0,0,0,0.8722,0.8795,0.8703,0.8774,0.867,0.869,0.8608,0.8621,0.8617,0.8558,0.8661,0.8664,0.8757,0.8797,0.8849,0.8906,0.8934,0,0,0.884,0.881,0.8849,0.8765,0.8814,0.8695,0.8759,0.871,0.8664,0.8667,0.8669,0.8765,0.8802,0.8853,0.9074,0.9097,0,0,0,0.8902,0.8931,0.8933,0.8932,0.8896,0.8869,0.8805,0.8787,0.8787,0.8676,0.8796,0.8816,0.8844,0.8869,0.8888,0.8909,0.8678,0.8677,0.8677,0.9139,0.9076,0.9135,0.9066,0.9066,0.8999,0.8992,0.8956,0.8893,0.8923,0.8924,0.9066,0.9097,0.9111,0.9134,0.8948,0.8948,0.8949,0.8949,0.9306,0.9336,0.925,0.9277,0.921,0.9231,0.9169,0.9124,0.9133,0.906,0.9081,0.9007,0.9138,0.9154,0.8956,0.8955,0.8954,0.8953,0.8953,0.9455,0.9458,0.9434,0.9426,0.9426,0.9352,0.9366,0.9304,0.9246,0.9267,0.9261,0.9259,0.925,0.9268,0.9269,0.9269,0.927,0.927,0.927,0.9619,0.9588,0.9608,0.9575,0.9566,0.9546,0.9478,0.9467,0.9439,0.9393,0.9392,0.9327,0.9162,0.9123,0.9278,0.9276,0.9275,0.9275,0.9274,0.9814,0.976,0.979,0.978,0.9737,0.9741,0.9661,0.9643,0.9625,0.9634,0.9563,0.9451,0.9416,0.94,0.9367,0.9576,0.9576,0.9576,0.9576,0.994,0.9916,0.9932,0.9921,0.9903,0.9834,0.9869,0.9817,0.9755,0.9739,0.97,0.965,0.9637,0.961,0.9589,0.9558,0.981,0.981,0.981,1.0057,1.0028,1.007,1.0008,0.9969,0.9937,0.9968,0.9959,0.9876,0.9819,0.9726,0.9716,0.9635,0.9612,0.9554,0.9524,0.9464,0,0]}]]